Location: Cerda�ola
(41.4919°N, 2.1403°E)
Time: 20:25:24
(UTC+00:00)

Lacrosse 4 Rocket - Pass Details

Date: 18 August 2020
Orbit: 544 x 615 km, 68.0° (Epoch: 01 October)

Event Time Altitude Azimuth Distance (km) Brightness Sun altitude
Exits shadow 21:46:08 15° 254° (WSW) 1,564 3.8 -28.2°
Maximum altitude 21:48:50 29° 306° (NW) 1,071 3.3 -28.5°
Drops below altitude 10° 21:52:30 10° 7° (N) 1,864 4.6 -28.9°
Sets 21:54:56 0° 19° (NNE) 2,752 5.4 -29.1°
